Stations météo

réclame
Mon MeteoGroup
Shoeburyness Landwick, Grande-Bretagne (3693): Température de l'air & dewpoint: 11.02.2018 19:00:00 - 17.02.2018 19:00:00 (GMT)Shoeburyness Landwick, Grande-Bretagne (3693): Température de l'air -20cm & Température de l'air -100cm: 11.02.2018 19:00:00 - 17.02.2018 19:00:00 (GMT)Shoeburyness Landwick, Grande-Bretagne (3693): Vitesse du vent & gusts: 11.02.2018 19:00:00 - 17.02.2018 19:00:00 (GMT)Shoeburyness Landwick, Grande-Bretagne (3693): Direction du vent: 11.02.2018 19:00:00 - 17.02.2018 19:00:00 (GMT)Shoeburyness Landwick, Grande-Bretagne (3693): reduced air pressure: 11.02.2018 19:00:00 - 17.02.2018 19:00:00 (GMT)Shoeburyness Landwick, Grande-Bretagne (3693): visibility: 11.02.2018 19:00:00 - 17.02.2018 19:00:00 (GMT)Shoeburyness Landwick, Grande-Bretagne (3693): Ensoleillement: 11.02.2018 19:00:00 - 17.02.2018 19:00:00 (GMT)Shoeburyness Landwick, Grande-Bretagne (3693): Quantités de précipitations: 11.02.2018 19:00:00 - 17.02.2018 19:00:00 (GMT)
Date & Time tt [°C] td [°C] tt -20cm [°C] tt -100cm [°C] ff [km/h] ff [knt] fx [km/h] fx [knt] dd ppp [hPa] vv [km] sd [min] rr [mm]
17.02.2018 19:00:00 4,9 2,2 - - 15 8 - - S 1023,4 28 0 0,0
17.02.2018 18:00:00 4,3 2,6 - - 13 7 - - ESE 1023,2 29 0 0,0
17.02.2018 17:00:00 5,4 3,2 - - 9 5 - - ESE 1022,6 18 54 0,0
17.02.2018 16:00:00 7,0 2,4 - - 9 5 - - ESE 1022,7 26 60 0,0
17.02.2018 15:00:00 7,7 0,4 - - 9 5 - - ESE 1022,5 25 60 0,0
17.02.2018 14:00:00 8,1 0,9 - - 9 5 - - SE 1022,6 30 60 0,0
17.02.2018 13:00:00 8,1 1,9 - - 9 5 - - SSE 1022,8 21 60 0,0
17.02.2018 12:00:00 7,9 2,0 - - 8 4 - - SSE 1023,1 19 60 0,0
17.02.2018 11:00:00 7,6 2,9 - - 5 3 - - ESE 1022,9 14 60 0,0
17.02.2018 10:00:00 4,6 4,6 - - 2 1 - - NNW 1022,4 6 48 0,2
17.02.2018 09:00:00 1,5 1,5 5,0 6,9 4 2 - - NNW 1022,2 0,8 30 0,0
17.02.2018 08:00:00 -1,1 -1,1 - - 5 3 - - N 1022,1 0,2 0 0,0
17.02.2018 07:00:00 -0,3 -0,5 - - 8 4 - - NNW 1021,8 0,2 0 0,0
17.02.2018 06:00:00 0,6 0,4 - - 4 2 - - NNW 1021,8 1,9 0 0,0
17.02.2018 05:00:00 0,6 0,4 - - 4 2 - - NNE 1021,7 4,2 0 0,0
17.02.2018 04:00:00 2,1 2,0 - - 5 3 - - SSE 1021,7 9 0 0,0
17.02.2018 03:00:00 1,6 1,3 - - 4 2 - - ESE 1022,2 5 0 0,0
17.02.2018 02:00:00 2,3 1,8 - - 2 1 - - NNE 1022,8 5 0 0,0
17.02.2018 01:00:00 4,2 3,7 - - 9 5 - - SE 1022,9 11 0 0,0
17.02.2018 00:00:00 3,3 2,9 - - 9 5 - - SE 1023,4 11 - 0,0
16.02.2018 23:00:00 2,2 1,6 - - 4 2 - - SE 1023,8 7 0 0,0
16.02.2018 22:00:00 2,9 2,2 - - 8 4 - - SSE 1023,9 10 0 0,0
16.02.2018 21:00:00 3,4 2,1 - - 9 5 - - SSW 1024,1 15 0 0,0
16.02.2018 20:00:00 3,8 2,2 - - 15 8 - - SSW 1024,3 21 0 0,0
16.02.2018 19:00:00 4,5 1,9 - - 13 7 - - S 1025,0 18 0 0,0
16.02.2018 18:00:00 5,0 1,8 - - 15 8 - - SE 1025,0 30 0 0,0
16.02.2018 17:00:00 5,4 2,6 - - 13 7 - - SE 1025,1 25 0 0,0
16.02.2018 16:00:00 6,9 2,6 - - 13 7 - - SE 1024,9 29 54 0,0
16.02.2018 15:00:00 7,9 2,1 - - 13 7 - - SE 1025,2 29 60 0,0
16.02.2018 14:00:00 8,5 1,7 - - 11 6 - - SW 1025,6 20 60 0,0
16.02.2018 13:00:00 9,1 1,5 - - 16 9 - - SW 1026,0 23 60 0,0
16.02.2018 12:00:00 8,1 2,1 - - 13 7 - - WSW 1026,2 27 60 0,0
16.02.2018 11:00:00 6,6 2,6 - - 16 9 - - WSW 1026,3 16 60 0,0
16.02.2018 10:00:00 5,2 1,9 - - 15 8 - - W 1025,9 13 60 0,0
16.02.2018 09:00:00 3,5 1,6 5,2 6,9 15 8 - - WSW 1025,7 17 60 0,0
16.02.2018 08:00:00 2,5 1,0 - - 15 8 - - WSW 1025,0 17 18 0,0
16.02.2018 07:00:00 2,3 0,8 - - 11 6 - - WSW 1024,1 16 0 0,0
16.02.2018 06:00:00 2,6 0,7 - - 11 6 - - WSW 1023,5 20 0 0,0
16.02.2018 05:00:00 3,0 0,8 - - 16 9 - - W 1023,2 21 0 0,0
16.02.2018 04:00:00 3,0 0,6 - - 16 9 - - W 1022,4 21 0 0,0
16.02.2018 03:00:00 3,4 0,5 - - 18 10 - - W 1021,7 26 0 0,0
16.02.2018 02:00:00 3,7 0,3 - - 18 10 - - W 1021,1 24 0 0,0
16.02.2018 01:00:00 3,9 0,3 - - 16 9 - - W 1020,4 23 0 0,0
16.02.2018 00:00:00 3,6 0,4 - - 13 7 - - WSW 1019,8 17 - 0,0
15.02.2018 23:00:00 3,9 0,2 - - 13 7 - - WSW 1019,3 18 0 0,0
15.02.2018 22:00:00 4,3 0,4 - - 15 8 - - WSW 1018,5 23 0 0,0
15.02.2018 21:00:00 4,6 0,5 - - 13 7 - - WSW 1017,6 18 0 0,0
15.02.2018 20:00:00 5,1 0,8 - - 13 7 - - WSW 1016,9 19 0 0,0
15.02.2018 19:00:00 6,2 0,9 - - 16 9 - - WSW 1016,1 22 0 0,0
15.02.2018 18:00:00 6,5 0,3 - - 11 6 - - WSW 1015,3 25 0 0,0
15.02.2018 17:00:00 8,0 -1,1 - - 18 10 - - W 1014,5 40 24 0,0
15.02.2018 16:00:00 9,6 -1,3 - - 21 11 - - W 1013,4 40 60 0,0
15.02.2018 15:00:00 9,7 1,0 - - 16 9 - - WSW 1012,5 27 60 0,0
15.02.2018 14:00:00 9,2 1,6 - - 21 11 52 28 W 1011,9 35 30 0,0
15.02.2018 13:00:00 9,6 1,3 - - 26 14 - - WNW 1011,2 35 42 0,0
15.02.2018 12:00:00 10,4 2,8 - - 22 12 - - W 1010,4 29 54 0,0
15.02.2018 11:00:00 9,9 4,8 - - 26 14 - - WNW 1009,3 35 54 0,0
15.02.2018 10:00:00 9,8 6,0 - - 16 9 - - W 1008,1 20 48 0,0
15.02.2018 09:00:00 9,1 7,5 5,0 6,9 15 8 - - WSW 1006,9 10 24 0,0
15.02.2018 08:00:00 7,8 6,9 - - 13 7 - - SW 1005,8 9 0 0,0
15.02.2018 07:00:00 8,3 7,3 - - 13 7 - - WSW 1004,7 10 0 0,0
15.02.2018 06:00:00 8,4 8,1 - - 15 8 - - SW 1003,7 13 0 0,0
15.02.2018 05:00:00 7,7 7,6 - - 11 6 - - SW 1003,0 6 0 0,0
15.02.2018 04:00:00 7,3 7,1 - - 11 6 - - SW 1002,5 4,6 0 0,0
15.02.2018 03:00:00 6,5 6,2 - - 13 7 - - SSW 1002,5 23 0 0,0
15.02.2018 02:00:00 6,6 6,2 - - 21 11 - - SSW 1002,2 29 0 0,0
15.02.2018 01:00:00 6,1 5,8 - - 24 13 - - SSW 1001,8 13 0 0,0
15.02.2018 00:00:00 6,0 5,1 - - 34 18 52 28 SSW 1001,7 30 - 0,0
14.02.2018 23:00:00 5,7 4,9 - - 37 20 59 32 SSW 1001,9 18 0 1,0
14.02.2018 22:00:00 5,4 4,6 - - 41 22 59 32 S 1002,2 7 0 1,8
14.02.2018 21:00:00 5,2 4,2 - - 39 21 54 29 S 1002,9 10 0 1,6
14.02.2018 20:00:00 4,8 3,9 - - 31 17 55 30 S 1003,7 6 0 1,4
14.02.2018 19:00:00 4,3 3,5 - - 46 25 67 36 S 1004,0 10 0 0,2
14.02.2018 18:00:00 4,3 3,2 - - 48 26 67 36 S 1004,5 14 0 0,4
14.02.2018 17:00:00 4,3 3,0 - - 39 21 63 34 S 1005,0 10 0 0,4
14.02.2018 16:00:00 5,3 2,1 - - 37 20 59 32 S 1006,1 19 0 0,0
14.02.2018 15:00:00 5,9 2,1 - - 35 19 50 27 S 1005,8 18 0 0,0
14.02.2018 14:00:00 6,0 1,8 - - 37 20 52 28 S 1006,3 20 0 0,0
14.02.2018 13:00:00 6,1 1,3 - - 39 21 54 29 S 1006,7 17 0 0,0
14.02.2018 12:00:00 6,3 0,9 - - 34 18 48 26 S 1007,1 23 0 0,0
14.02.2018 11:00:00 6,2 2,9 - - 26 14 - - S 1007,5 23 24 0,0
14.02.2018 10:00:00 4,7 2,9 - - 16 9 - - S 1008,0 13 60 -
14.02.2018 09:00:00 3,6 2,2 4,7 7,0 26 14 - - SSW 1008,1 17 18 0,0
14.02.2018 08:00:00 3,9 3,3 - - 15 8 - - S 1007,8 6 0 0,0
14.02.2018 07:00:00 3,7 3,1 - - 15 8 - - SSE 1007,4 6 0 0,0
14.02.2018 06:00:00 3,5 2,9 - - 18 10 - - SE 1007,4 6 0 0,0
14.02.2018 05:00:00 3,5 2,8 - - 21 11 - - SSE 1007,5 6 0 0,0
14.02.2018 04:00:00 3,6 2,8 - - 16 9 - - SE 1007,6 9 0 0,0
14.02.2018 03:00:00 3,7 2,8 - - 15 8 - - SE 1007,6 10 0 0,0
14.02.2018 02:00:00 3,7 2,7 - - 16 9 - - SE 1007,1 13 0 0,0
14.02.2018 01:00:00 3,5 2,6 - - 15 8 - - SE 1006,7 15 0 0,0
14.02.2018 00:00:00 3,6 2,5 - - 13 7 - - SSE 1006,7 16 - 0,0
13.02.2018 23:00:00 3,3 2,3 - - 16 9 - - SSE 1006,2 15 0 0,0
13.02.2018 22:00:00 3,2 2,3 - - 24 13 - - SSE 1005,5 8 0 0,2
13.02.2018 21:00:00 2,9 2,2 - - 26 14 - - SE 1004,9 7 0 0,0
13.02.2018 20:00:00 3,1 1,9 - - 26 14 - - SSE 1004,4 35 0 0,0
13.02.2018 19:00:00 3,2 1,8 - - 29 16 46 25 SSE 1003,6 25 0 0,4
13.02.2018 18:00:00 3,6 2,1 - - 29 16 - - SSE 1002,7 11 0 0,0
13.02.2018 17:00:00 3,7 1,9 - - 29 16 52 28 SSE 1001,8 35 0 0,0
13.02.2018 16:00:00 3,7 2,4 - - 35 19 55 30 S 1001,0 12 0 0,0
13.02.2018 15:00:00 3,7 2,3 - - 42 23 55 30 S 1000,7 13 0 0,0
13.02.2018 14:00:00 3,8 2,3 - - 42 23 57 31 S 1000,6 6 0 0,0
13.02.2018 13:00:00 3,7 2,0 - - 42 23 63 34 S 1001,1 14 0 0,2
13.02.2018 12:00:00 5,1 1,1 - - 41 22 63 34 S 1001,2 23 0 0,0
13.02.2018 11:00:00 5,4 0,9 - - 41 22 57 31 S 1001,9 23 0 0,0
13.02.2018 10:00:00 5,0 1,7 - - 39 21 55 30 S 1002,4 27 6 0,0
13.02.2018 09:00:00 4,5 1,5 4,5 7,0 37 20 50 27 S 1002,7 23 0 0,0
13.02.2018 08:00:00 3,9 1,5 - - 31 17 46 25 S 1003,6 27 0 0,0
13.02.2018 07:00:00 3,8 1,4 - - 31 17 - - S 1003,9 27 0 0,0
13.02.2018 06:00:00 4,2 1,5 - - 26 14 - - S 1004,8 26 0 0,0
13.02.2018 05:00:00 3,8 1,2 - - 24 13 - - S 1005,8 30 0 0,0
13.02.2018 04:00:00 3,5 0,9 - - 24 13 - - S 1007,0 30 0 0,0
13.02.2018 03:00:00 3,3 0,9 - - 21 11 - - S 1008,1 35 0 0,0
13.02.2018 02:00:00 2,5 0,7 - - 16 9 - - S 1009,0 50 0 0,0
13.02.2018 01:00:00 2,8 1,3 - - 16 9 - - S 1010,2 40 0 0,0
13.02.2018 00:00:00 2,9 1,1 - - 22 12 - - SSW 1011,0 50 - 0,0
12.02.2018 23:00:00 2,8 1,1 - - 24 13 - - SSW 1011,8 45 0 0,0
12.02.2018 22:00:00 3,0 0,8 - - 22 12 - - SSW 1012,4 40 0 0,0
12.02.2018 21:00:00 3,2 0,4 - - 21 11 - - SSW 1013,0 30 0 0,0
12.02.2018 20:00:00 3,6 0,1 - - 21 11 - - SSW 1013,3 27 0 0,0
12.02.2018 19:00:00 3,1 0,5 - - 16 9 - - SSW 1013,7 30 0 -
12.02.2018 18:00:00 3,5 -0,1 - - 13 7 - - SSW 1014,1 35 0 -
12.02.2018 17:00:00 5,0 -1,9 - - 11 6 - - SW 1014,3 40 6 -
12.02.2018 16:00:00 6,1 -2,2 - - 16 9 - - WSW 1014,4 21 48 -
12.02.2018 15:00:00 6,6 -2,4 - - 21 11 - - WSW 1014,7 24 60 -
12.02.2018 14:00:00 6,3 -2,1 - - 22 12 - - WSW 1015,1 13 60 0,0
12.02.2018 13:00:00 5,9 -1,6 - - 18 10 - - WSW 1015,5 22 60 0,0
12.02.2018 12:00:00 5,4 -1,2 - - 16 9 - - W 1016,0 35 60 0,0
12.02.2018 11:00:00 4,5 -1,1 - - 13 7 - - W 1016,1 30 60 0,0
12.02.2018 10:00:00 3,0 -1,2 - - 15 8 - - W 1015,8 29 60 0,0
12.02.2018 09:00:00 1,4 -2,0 4,7 7,0 18 10 - - W 1015,4 35 60 0,0
12.02.2018 08:00:00 0,3 -2,3 - - 13 7 - - W 1014,8 29 12 0,0
12.02.2018 07:00:00 -0,2 -2,5 - - 9 5 - - W 1014,4 35 0 0,0
12.02.2018 06:00:00 0,1 -2,6 - - 13 7 - - W 1013,8 40 0 0,0
12.02.2018 05:00:00 0,3 -2,6 - - 13 7 - - W 1013,3 45 0 0,0
12.02.2018 04:00:00 0,6 -2,5 - - 18 10 - - W 1012,9 45 0 0,0
12.02.2018 03:00:00 0,8 -2,4 - - 16 9 - - W 1012,6 50 0 0,0
12.02.2018 02:00:00 1,1 -2,3 - - 24 13 - - W 1011,9 50 0 0,0
12.02.2018 01:00:00 1,4 -2,2 - - 31 17 - - WNW 1011,3 50 0 0,0
12.02.2018 00:00:00 1,4 -2,1 - - 28 15 - - WNW 1010,6 50 - 0,0
11.02.2018 23:00:00 1,6 -1,8 - - 26 14 - - WNW 1010,0 50 0 0,0
11.02.2018 22:00:00 1,9 -1,7 - - 22 12 - - W 1009,3 45 0 0,0
11.02.2018 21:00:00 2,2 -1,5 - - 24 13 - - W 1008,6 45 0 0,0
11.02.2018 20:00:00 2,7 -1,3 - - 18 10 - - W 1007,8 45 0 0,0
11.02.2018 19:00:00 3,1 -1,2 - - 22 12 - - WNW 1006,9 45 0 0,0

tt = Température de l'air
td = dewpoint
tt -20cm = Température de l'air -20cm
tt -100cm = Température de l'air -100cm
ff = Vitesse du vent
fx = gusts
dd = Direction du vent
ppp = reduced air pressure
vv = visibility
sd = Ensoleillement
rr = Quantités de précipitations

stations d'obs. à proximité